Granite Falls, MN

5:11 PM CST on January 21, 2017 (GMT -0600)
Granite Falls

Weather History for KGDB - October, 2012

Change the Weather History Date:

Thursday, October 11, 2012

  Actual Average (KMVE) Record (KMVE)
Temperature  
Mean Temperature 40 °F -  
Max Temperature 56 °F 63 °F 93 °F (2015)
Min Temperature 23 °F 39 °F 5 °F (1998)
Degree Days  
Heating Degree Days 26    
Moisture  
Dew Point 26 °F    
Average Humidity 53    
Maximum Humidity 75    
Minimum Humidity 30    
Precipitation  
Precipitation 0.00 in - - ()
Sea Level Pressure  
Sea Level Pressure 30.16 in    
Wind  
Wind Speed 12 mph (NW)    
Max Wind Speed 18 mph    
Max Gust Speed 24 mph    
Visibility 10 miles    
Events      
Averages and records for this station are not official NWS values.
T = Trace of Precipitation, MM = Missing Value Source: NWS Daily Summary

Daily Weather History Graph

Daily Weather History Graph

Search for Another Location

Airport or City:

Trip Planner

Search our weather history database for the weather conditions in past years. The results will help you decide how hot, cold, wet, or windy it might be!

Date:

Astronomy

Oct. 11, 2012 Rise Set
Actual Time 7:33 AM CDT 6:43 PM CDT
Civil Twilight 7:03 AM CDT 7:12 PM CDT
Nautical Twilight 6:30 AM CDT 7:46 PM CDT
Astronomical Twilight 5:56 AM CDT 8:20 PM CDT
Moon 3:02 AM CDT (10/11) 4:28 PM CDT (10/11)
Length of Visible Light 12h 09m
Length of Day
11h 10m
Waning Crescent, 18% of the Moon is Illuminated
Oct 11
Waning Crescent
Oct 15
New
Oct 21
First Quarter
Oct 29
Full
Nov 6
Last Quarter

Hourly Weather History & Observations

Time (CDT) Temp. Windchill Dew Point Humidity Pressure Visibility Wind Dir Wind Speed Gust Speed Precip Events Conditions
12:12 AM 54.5 °F - 29.8 °F 39% 29.80 in 10.0 mi SSW 17.3 mph 24.2 mph N/A   Clear
12:32 AM 54.9 °F - 30.2 °F 39% 29.79 in 10.0 mi SSW 15.0 mph 24.2 mph N/A   Clear
12:52 AM 55.8 °F - 30.2 °F 38% 29.80 in 10.0 mi SW 12.7 mph - N/A   Clear
1:12 AM 56.5 °F - 31.1 °F 38% 29.84 in 10.0 mi West 18.4 mph 23.0 mph N/A   Clear
1:32 AM 56.5 °F - 31.6 °F 39% 29.85 in 10.0 mi WSW 12.7 mph - N/A   Clear
2:13 AM 54.7 °F - 32.0 °F 42% 29.85 in 10.0 mi WSW 6.9 mph - N/A   Clear
2:32 AM 54.1 °F - 32.2 °F 43% 29.86 in 10.0 mi West 11.5 mph - N/A   Scattered Clouds
2:52 AM 53.8 °F - 32.9 °F 45% 29.88 in 10.0 mi West 12.7 mph 18.4 mph N/A   Scattered Clouds
3:13 AM 52.9 °F - 31.8 °F 45% 29.89 in 10.0 mi WNW 12.7 mph 17.3 mph N/A   Clear
3:32 AM 49.6 °F - 30.0 °F 47% 29.90 in 10.0 mi WNW 13.8 mph - N/A   Clear
3:52 AM 47.1 °F - 28.6 °F 49% 29.91 in 10.0 mi WNW 13.8 mph 18.4 mph N/A   Clear
4:12 AM 45.5 °F 41.3 °F 28.2 °F 51% 29.93 in 10.0 mi NW 8.1 mph - N/A   Clear
4:32 AM 44.4 °F 39.0 °F 29.7 °F 56% 29.94 in 10.0 mi NNW 10.4 mph - N/A   Clear
4:52 AM 43.2 °F 35.9 °F 30.9 °F 62% 29.95 in 10.0 mi NNW 15.0 mph 21.9 mph N/A   Clear
5:32 AM 41.9 °F 33.7 °F 32.0 °F 68% 30.01 in 10.0 mi NNW 17.3 mph 23.0 mph N/A   Clear
5:52 AM 40.8 °F 33.3 °F 32.2 °F 71% 30.02 in 10.0 mi North 13.8 mph 18.4 mph N/A   Clear
6:12 AM 40.6 °F 33.8 °F 32.4 °F 72% 30.03 in 10.0 mi NNW 11.5 mph 18.4 mph N/A   Clear
6:32 AM 40.1 °F 34.1 °F 32.9 °F 75% 30.05 in 10.0 mi NNW 9.2 mph - N/A   Clear
6:52 AM 40.1 °F 33.2 °F 32.9 °F 75% 30.06 in 10.0 mi NNW 11.5 mph - N/A   Mostly Cloudy
7:32 AM 40.1 °F 34.7 °F 32.9 °F 75% 30.09 in 10.0 mi NNW 8.1 mph - N/A   Mostly Cloudy
7:52 AM 40.1 °F 34.7 °F 32.9 °F 75% 30.11 in 10.0 mi NNW 8.1 mph - N/A   Scattered Clouds
8:12 AM 40.1 °F 33.6 °F 32.5 °F 74% 30.13 in 10.0 mi NNW 10.4 mph - N/A   Mostly Cloudy
8:32 AM 40.1 °F 34.1 °F 32.2 °F 73% 30.14 in 10.0 mi NNW 9.2 mph - N/A   Overcast
8:52 AM 40.1 °F 32.7 °F 32.0 °F 73% 30.15 in 10.0 mi NNW 12.7 mph - N/A   Scattered Clouds
9:12 AM 40.1 °F 34.1 °F 32.2 °F 73% 30.16 in 10.0 mi NNW 9.2 mph - N/A   Clear
9:32 AM 40.5 °F 33.6 °F 32.4 °F 73% 30.17 in 10.0 mi NNW 11.5 mph - N/A   Scattered Clouds
9:52 AM 41.0 °F 33.5 °F 32.4 °F 71% 30.19 in 10.0 mi NNW 13.8 mph 17.3 mph N/A   Clear
10:12 AM 41.2 °F 34.1 °F 32.5 °F 71% 30.20 in 10.0 mi NNW 12.7 mph 16.1 mph N/A   Clear
10:32 AM 42.8 °F 36.6 °F 32.2 °F 66% 30.21 in 10.0 mi North 11.5 mph 17.3 mph N/A   Clear
10:52 AM 44.2 °F 37.3 °F 32.0 °F 62% 30.21 in 10.0 mi North 15.0 mph - N/A   Clear
11:12 AM 44.2 °F 37.6 °F 32.0 °F 62% 30.22 in 7.0 mi NNW 13.8 mph 19.6 mph N/A   Clear
11:32 AM 45.1 °F 39.5 °F 31.8 °F 60% 30.23 in 10.0 mi North 11.5 mph 19.6 mph N/A   Scattered Clouds
11:52 AM 44.1 °F 37.4 °F 29.3 °F 56% 30.24 in 10.0 mi NNW 13.8 mph 19.6 mph N/A   Scattered Clouds
12:12 PM 46.0 °F 39.6 °F 28.9 °F 51% 30.24 in 10.0 mi NNW 15.0 mph 21.9 mph N/A   Mostly Cloudy
12:32 PM 46.9 °F - 27.1 °F 46% 30.24 in 10.0 mi NNW 15.0 mph 20.7 mph N/A   Mostly Cloudy
12:52 PM 45.5 °F 39.6 °F 25.9 °F 46% 30.24 in 10.0 mi North 12.7 mph 17.3 mph N/A   Scattered Clouds
1:12 PM 46.4 °F 41.1 °F 24.3 °F 42% 30.25 in 10.0 mi NW 11.5 mph 18.4 mph N/A   Scattered Clouds
1:32 PM 46.4 °F 41.1 °F 23.4 °F 40% 30.25 in 10.0 mi NW 11.5 mph 16.1 mph N/A   Scattered Clouds
1:52 PM 46.4 °F 41.1 °F 21.6 °F 37% 30.26 in 10.0 mi NNW 11.5 mph - N/A   Clear
2:12 PM 47.3 °F - 19.6 °F 33% 30.26 in 10.0 mi NW 11.5 mph 19.6 mph N/A   Clear
2:32 PM 45.7 °F 39.8 °F 18.5 °F 34% 30.26 in 10.0 mi NW 12.7 mph 20.7 mph N/A   Clear
3:12 PM 45.9 °F 40.8 °F 19.9 °F 36% 30.28 in 10.0 mi NW 10.4 mph 16.1 mph N/A   Clear
3:32 PM 45.5 °F 39.9 °F 19.6 °F 36% 30.28 in 10.0 mi NW 11.5 mph 17.3 mph N/A   Clear
3:52 PM 44.8 °F 38.7 °F 19.6 °F 37% 30.29 in 10.0 mi NNW 12.7 mph - N/A   Clear
4:12 PM 45.0 °F 39.7 °F 19.8 °F 37% 30.29 in 10.0 mi NNW 10.4 mph - N/A   Clear
4:32 PM 45.1 °F 40.3 °F 20.3 °F 37% 30.28 in 10.0 mi NW 9.2 mph 16.1 mph N/A   Clear
4:52 PM 45.0 °F 39.7 °F 19.2 °F 36% 30.29 in 10.0 mi NW 10.4 mph - N/A   Clear
5:12 PM 45.7 °F 42.0 °F 18.0 °F 33% 30.29 in 10.0 mi NW 6.9 mph 16.1 mph N/A   Clear
5:32 PM 45.5 °F 40.3 °F 15.8 °F 30% 30.30 in 10.0 mi NNW 10.4 mph 17.3 mph N/A   Clear
6:32 PM 42.6 °F 38.4 °F 16.7 °F 35% 30.32 in 10.0 mi NNW 6.9 mph - N/A   Clear
6:52 PM 41.4 °F 36.2 °F 17.6 °F 38% 30.32 in 10.0 mi NNW 8.1 mph - N/A   Clear
7:12 PM 40.1 °F 35.3 °F 18.0 °F 41% 30.33 in 10.0 mi NNW 6.9 mph - N/A   Clear
7:32 PM 38.5 °F 32.7 °F 18.7 °F 45% 30.34 in 10.0 mi NNW 8.1 mph - N/A   Clear
8:12 PM 36.7 °F 32.9 °F 19.4 °F 50% 30.35 in 10.0 mi NNW 4.6 mph - N/A   Clear
8:32 PM 33.4 °F 30.4 °F 18.5 °F 54% 30.36 in 10.0 mi NW 3.5 mph - N/A   Clear
8:52 PM 33.8 °F 30.8 °F 18.7 °F 54% 30.37 in 10.0 mi NW 3.5 mph - N/A   Clear
9:12 PM 33.1 °F 27.7 °F 18.1 °F 54% 30.38 in 10.0 mi NW 5.8 mph - N/A   Clear
10:12 PM 25.5 °F 19.9 °F 14.9 °F 64% 30.40 in 10.0 mi WNW 4.6 mph - N/A   Clear
10:32 PM 25.2 °F 19.5 °F 14.2 °F 63% 30.41 in 10.0 mi WNW 4.6 mph - N/A   Clear
11:12 PM 23.0 °F 17.0 °F 14.4 °F 70% 30.42 in 10.0 mi WNW 4.6 mph - N/A   Clear
11:32 PM 24.8 °F 20.5 °F 15.3 °F 67% 30.43 in 10.0 mi WNW 3.5 mph - N/A   Clear